Other Public Products
Issued by NWS Grand Forks, ND

Home | Current Version | Previous Version | Graphics & Text | Print | Product List | Glossary On
Versions: 1 2 3 4 5 6 7 8 9 10 11 12 13 14 15 16 17 18 19 20 21 22 23 24 25 26 27 28 29 30 31 32 33 34 35 36 37 38 39 40 41 42 43 44 45 46 47 48 49 50
000
FPUS83 KFGF 202131
OPUFGF
PRAIRIE TO PINES WEATHER ROUNDUP
NATIONAL WEATHER SERVICE EASTERN NORTH DAKOTA/GRAND FORKS ND
400 PM CDT SAT SEP 20 2014

 **SATELLITE DATA USED TO AUGMENT SKY COVER AT AUTOMATED STATIONS**
 *****  WEATHER ACROSS EASTERN NORTH DAKOTA  *****

CITY           SKY/WX    TMP DP  RH WIND       PRES   REMARKS
GRAND FORKS    PTSUNNY   63  52  67 NW17G28   29.80R
GRAND FORKS AF MOSUNNY   65  53  65 N17G31    29.82R
GRAND CITY NWS   N/A     66 N/A N/A NW14        N/A
BUXTON           N/A     65  54  68 NW18G31     N/A
DEVILS LAKE    SUNNY     70  46  43 NW30G37   29.83S
FARGO          LGT RAIN  64  53  67 NW24G32   29.83R
WAHPETON ARPT  MOCLDY    64  52  63 NW20G31   29.85R
$$

 *****  WEATHER ACROSS CENTRAL AND WESTERN NORTH DAKOTA  *****

CITY           SKY/WX    TMP DP  RH WIND       PRES   REMARKS
JAMESTOWN      MOSUNNY   68  49  50 NW26G33   29.90R
BISMARCK       PTSUNNY   71  43  36 NW25G36   30.00R
MINOT          SUNNY     71  37  28 W30G37    29.95S
MINOT AFB      SUNNY     70  38  31 NW32G41   29.92S
GARRISON         N/A     72  38  29 NW23G40   29.98R
WILLISTON      PTSUNNY   71  35  26 NW29      30.07R
DICKINSON      SUNNY     72  37  28 NW21G31   30.06S
HETTINGER      SUNNY     73  31  21 NW32G41   30.09S
$$

 *****  OTHER OBSERVATIONS NORTHEAST NORTH DAKOTA  *****

CITY           SKY/WX    TMP DP  RH WIND       PRES   REMARKS
WALHALLA         N/A     64  54  68 NW18G29   29.80S
LANGDON        HVY RAIN  54  46  76 N17G36    29.82S
CAVALIER       FAIR      64  50  59 NW18G29   29.80R
GRAFTON        MOCLDY    64  52  63 NW18G31   29.79S
CANDO          FAIR      68  43  40 NW26G37   29.86R
FORT TOTTEN      N/A     68  50  52 NW13      29.95S
ROLLA          MOCLDY    66  43  42 NW26G37   29.87R
RUGBY          FAIR      68  45  42 NW26G39   29.89R
 ***** THE ABOVE OBSERVATIONS ARE NON NWS ARE NOT QUALITY
        CONTROLLED AND MAY MIS-REPORT RAIN FOR SNOW...
$$

 *****  OTHER OBSERVATIONS SOUTHEAST NORTH DAKOTA *****

CITY           SKY/WX    TMP DP  RH WIND       PRES   REMARKS
COOPERSTOWN    NOT AVBL
VALLEY CITY    LGT RAIN  66  48  52 NW22G37   29.87S
OAKES            N/A     68  50  52 NW22G35   29.89S
GWINNER        CLEAR     70  50  49 NW23G30   29.89R
SHEYENNE NWR     N/A     67  53  59 NW16      29.95S
BUFFALO          N/A     68  44  41 NW14        N/A
WYNDMERE       NOT AVBL
 ***** THE ABOVE OBSERVATIONS ARE NON NWS ARE NOT QUALITY
       CONTROLLED AND MAY MIS-REPORT RAIN FOR SNOW...
$$

  *****  WEATHER ACROSS NORTHERN MINNESOTA  *****

CITY           SKY/WX    TMP DP  RH WIND       PRES   REMARKS
FLAG ISLAND    CLOUDY    55  46  71 N3        29.71R
WARROAD        HVY RAIN  54  50  87 NW6       29.73R
ROSEAU         RAIN      55  50  82 NE5       29.73R
HALLOCK          N/A     59  52  77 NW22G32   29.79R
THF RVR FALLS  CLOUDY    57  52  82 NW20G30   29.76R
HALSTAD          N/A     62  50  63 NW18        N/A
FOSSTON        CLOUDY    55  52  88 NW13G30   29.78R
BAUDETTE       CLOUDY    58  50  75 N10       29.70R
WASKISH        TSTM      59  54  82 CALM      29.69S
CROOKSTON      CLOUDY    63  52  67 NW26G36   29.80R
$$
  *****  WEATHER ACROSS CENTRAL AND WEST MINNESOTA  *****

CITY           SKY/WX    TMP DP  RH WIND       PRES   REMARKS
BEMIDJI        RAIN      54  52  95 W13       29.73F
PARK RAPIDS    CLOUDY    57  54  89 W16G25    29.76F
WADENA         CLOUDY    57  55  94 NW12      29.78F
DETROIT LAKES  CLOUDY    61  52  72 NW29G40   29.82R
MOORHEAD       MOSUNNY   66  55  68 NW18G28   29.84S
FERGUS FALLS   CLOUDY    63  52  67 NW21G31   29.84R
ELBOW LAKE     FAIR      62  56  81 NW22G32   29.83R
MORRIS MN      NOT AVBL
STAPLES        LGT RAIN  55  52  88 NW8       29.80R
WHEATON        CLOUDY    63  57  82 NW20      29.86S
$$
  *****  WEATHER ELSEWHERE ACROSS MINNESOTA  *****

CITY           SKY/WX    TMP DP  RH WIND       PRES   REMARKS
DULUTH         PTSUNNY   69  47  45 W12G18    29.71S
INTRNTL FALLS  PTSUNNY   60  47  61 CALM      29.70S
ELY            MOSUNNY   57  50  77 NW5       29.71S
CLOQUET        PTSUNNY   68  48  49 SW9       29.71S
BRAINERD       LGT RAIN  62  55  77 NW32G48   29.79R SQUALL
HIBBING        PTSUNNY   67  48  50 W8        29.71S
ALEXANDRIA     RAIN      58  58 100 NW10      29.82F FOG
SAINT CLOUD    MOSUNNY   74  54  49 W8        29.75S
MINNEAPOLIS    MOSUNNY   77  54  44 W14       29.74F
$$

  *****  WEATHER ACROSS SOUTH DAKOTA  *****

CITY           SKY/WX    TMP DP  RH WIND       PRES   REMARKS
SIOUX FALLS    PTSUNNY   81  52  36 W16G29    29.85F
BROOKINGS      NOT AVBL
WATERTOWN      MOSUNNY   71  56  58 N32G43    29.87R
HURON          MOSUNNY   81  46  29 NW30G43   29.87R
SISSETON         N/A     66  61  84 N16       29.85R
ABERDEEN         N/A     75  48  38 NW29G41   29.91R
MITCHELL       MOSUNNY   85  47  26 NW26G37   29.89S
PIERRE         SUNNY     79  44  28 NW28G38   29.99R
MOBRIDGE       MOSUNNY   75  44  33 NW17G32   29.98R
RAPID CITY     SUNNY     76  39  26 N24G40    30.15S
$$

  *****  SOME WEATHER IN NEARBY STATES *****

CITY           SKY/WX    TMP DP  RH WIND       PRES   REMARKS
GLASGOW MT     SUNNY     72  36  26 NW23G29   30.15F
GREAT FALLS MT SUNNY     72  42  34 VRB7      30.22F
CHEYENNE WY    MOSUNNY   79  41  25 NE10      30.27F
SCOTTSBLUFF NE SUNNY     85  45  24 NW9G22    30.16F
OMAHA NE       MOSUNNY   85  57  38 W9        29.91S
DES MOINES IA  MOSUNNY   84  65  52 W15       29.85F
DAVENPORT IA   MOSUNNY   78  65  63 SW15      29.83S
CHICAGO IL     LGT RAIN  73  67  81 W8G22     29.80F
EAU CLAIRE WI  PTSUNNY   75  56  51 NW12      29.73S
LA CROSSE WI   SUNNY     80  58  46 NW12      29.74F
$$

  *****  SOME NATIONAL WEATHER *****

CITY           SKY/WX    TMP DP  RH WIND       PRES   REMARKS
LA GUARDIA NY  PTSUNNY   73  59  61 S18       30.16F
RALEIGH NC     PTSUNNY   79  57  46 NE8       30.05F
ATLANTA GA     MOSUNNY   80  59  48 NE8       30.04F
NEW ORLEANS LA MOSUNNY   87  64  46 E13       29.94F
OKLAHOMA CITY  MOSUNNY   88  67  49 SE12      29.98F HX  91
ALBUQUERQUE NM MOSUNNY   85  55  35 W10       30.10F
SALT LAKE CITY MOSUNNY   83  43  24 NW12      30.11F
LOS ANGELES CA MOSUNNY   73  60  63 W6        29.92F
BOISE ID       SUNNY     82  43  25 CALM      30.08F
SEATTLE WA     SUNNY     72  56  57 N13G18    30.02F
$$

*** WEATHER ACROSS MANITOBA...SASKATCHEWAN AND ONTARIO ***
                ***ONTARIO***

CITY           SKY/WX    TMP DP  RH WIND       PRES   REMARKS
GERALDTON      CLOUDY    48  48 100 N12       29.67R
THUNDER BAY    PTSUNNY   63  54  72 NW5       29.67R
SIOUX LOOKOUT  PTSUNNY   61  48  63 N7        29.70R
TORONTO        PTSUNNY   77  57  50 SW23G33   29.84F
BIG TROUT LK   PTSUNNY   46  36  66 N5        29.75R
PICKLE LAKE    CLOUDY    48  41  76 N7        29.73R
DRYDEN         CLOUDY    57  52  82 NE3       29.70S
KENORA         CLOUDY    57  46  67 NW6       29.72S
$$
                *** MANITOBA***

CITY           SKY/WX    TMP DP  RH WIND       PRES   REMARKS
BRANDON        PTSUNNY   64  46  52 NW25G31   29.84R
DAUPHIN        PTSUNNY   57  52  82 NW8       29.82R
ISLAND LAKE    MOSUNNY   52  39  62 SE3       29.78R
PILOT MOUND    NOT AVBL
THE PAS        CLOUDY    57  50  77 NW12      29.80R
THOMPSON       PTSUNNY   50  41  71 E6        29.80R
WINNIPEG       PTSUNNY   55  54  94 N10       29.80R
LYNN LAKE      CLOUDY    46  43  87 E3        29.83R
CHURCHILL      PTSUNNY   39  36  87 N9        29.87
GILLAM         MOSUNNY   48  34  57 N5        29.82R
$$
                ***SASKATCHEWAN***

CITY           SKY/WX    TMP DP  RH WIND       PRES   REMARKS
ESTEVAN        MOSUNNY   68  39  34 NW23G43   30.00R
KINDERSLEY     PTSUNNY   66  39  37 W17G28    30.12S
LLOYDMINSTER   MOSUNNY   68  34  28 NW15G28   30.07F
PRINCE ALBERT  PTSUNNY   66  43  42 NW18G30   29.94R
REGINA         MOSUNNY   68  41  37 NW30G45   30.01S


USA.gov is the U.S. government's official web portal to all federal, state and local government web resources and services.